Regional & State Weather Roundups


743 
ASUS44 KFWD 212215
RWRTX 
NORTH TEXAS HOURLY WEATHER ROUNDUP
NATIONAL WEATHER SERVICE FORT WORTH TX
400 PM CST WED FEB 21 2018
NOTE: "FAIR" INDICATES FEW OR NO CLOUDS BELOW 12,000 FEET WITH NO
SIGNIFICANT WEATHER AND/OR OBSTRUCTIONS TO VISIBILITY.
TXZ118-119-212300-
DALLAS/FORT WORTH METROPLEX
  
CITY           SKY/WX    TMP DP  RH WIND       PRES   REMARKS
DFW AIRPORT    RAIN      36  34  92 N7        30.21R FOG     WCI  30  
DALLAS LOVE    LGT RAIN  36  34  92 NE6       30.24F WCI  31          
FTW MEACHAM    HVY RAIN  36  34  92 NE17      30.14F FOG     WCI  26  
DAL-EXECUTIVE  LGT RAIN  36  35  96 VRB5      30.25R WCI  32          
FTW-ALLIANCE   HVY RAIN  34  33  96 NE10      30.20F FOG     WCI  26  
FTW-NAS-JRB    HVY RAIN  35  32  88 NE17G24   30.17F FOG     WCI  25  
FTW-SPINKS     RAIN      34  34 100 NE16G23   30.19F WCI  23          
ARLINGTON      RAIN      34  34 100 NE21      30.14F FOG     WCI  22  
GRAND PRAIRIE  LGT RAIN  34  34 100 N8        30.24F WCI  27          
ADDISON        LGT RAIN  34  32  93 NE15G25   30.21F WCI  24          
MESQUITE       RAIN      36  34  93 N16G23    30.25F FOG     WCI  26  
LANCASTER      LGT RAIN  35  34  96 NE8G16    30.25F WCI  28          
$$
TXZ091>094-102>105-117-120-121-131>134-212300-
NORTH CENTRAL TEXAS
  
CITY           SKY/WX    TMP DP  RH WIND       PRES   REMARKS
SHRMAN/DENISON MIX PCPN N/A N/A N/A CALM      30.31F VSB 1/4          
BOWIE          LGT SNOW  32  31  96 N8        30.25R WCI  25          
BRIDGEPORT     LGT SNOW  32  32 100 CALM      30.27S                  
DECATUR        LGT SNOW  32  32  99 CALM      30.21R                  
DENTON         RAIN      33  32  96 NE13      30.22F FOG     WCI  24  
MCKINNEY       LGT RAIN  34  34 100 N18       30.23F FOG     WCI  23  
BONHAM         MIX PCPN  31  30  96 N14G21    30.33R FOG     WCI  21  
GREENVILLE     LGT SNOW  37  37 100 N18G25    30.26R WCI  27          
ROCKWALL       LGT RAIN  34  34 100 N14       30.25F WCI  25          
TERRELL        HVY RAIN  37  34  89 N15G21    30.24F FOG     WCI  28  
WAXAHACHIE     HVY RAIN  36  36 100 N8        30.25R WCI  29          
CLEBURNE       RAIN      34  34 100 VRB6G32   30.24R WCI  29          
GRANBURY       CLOUDY    35  34  94 W8        30.26R WCI  29          
$$
TXZ083>090-098>101-113>116-127>130-139>142-154-155-212300-
WESTERN NORTH TEXAS
  
CITY           SKY/WX    TMP DP  RH WIND       PRES   REMARKS
WICHITA FALLS  CLOUDY    27  24  89 N21       30.30R WCI  13          
WF-KICKAPOO    FLURRIES  28  26  90 N13       30.33R WCI  18          
VERNON         CLOUDY    27  21  76 N21G26    30.33F WCI  14          
ABILENE        FRZ RAIN  24  24 100 NW17      30.30R FOG     WCI  11  
ABILENE-DYESS  FRZ RAIN  25  25 100 N16       30.32R FOG     WCI  12  
GRAHAM           N/A     31  32 100 NW5       30.26S WCI  26          
CISCO          CLOUDY    30  28  93 N14G22    30.25S FOG     WCI  20  
EASTLAND       CLOUDY    29  29  97 NW15      30.26R FOG     WCI  18  
RANGER         CLOUDY    32  32 100 CALM      30.25R                  
STEPHENVILLE   CLOUDY    33  32  96 CALM      30.26R                  
COMANCHE       CLOUDY    33  33 100 NW10      30.25R WCI  25          
BROWNWOOD      CLOUDY    32  32 100 NW15      30.26R WCI  22          
COLEMAN        CLOUDY    31  29  94 NW15      30.28R FOG     WCI  20  
$$
TXZ143>147-156>162-174-175-212300-
CENTRAL TEXAS
  
CITY           SKY/WX    TMP DP  RH WIND       PRES   REMARKS
WACO           LGT RAIN  37  35  92 N12       30.20F WCI  29          
WACO-MCGREGOR  CLOUDY    36  35  96 NW7G17    30.23F WCI  30          
HILLSBORO      LGT SNOW  40  40 100 NE13      30.19S VSB 1   WCI  32  
CORSICANA      CLOUDY    37  37 100 N13G22    30.21F WCI  29          
MEXIA          CLOUDY    37  36  95 N16G24    30.18F WCI  27          
HEARNE         CLOUDY    40  40 100 NW14G26   30.19F WCI  32          
CAMERON        CLOUDY    38  37  94 N15G21    30.18F WCI  29          
TEMPLE         CLOUDY    37  37 100 N25       30.17S WCI  26          
KILLEEN        TSTM      39  39 100 NW7       30.19R VSB 1   WCI  34  
KILLEEN-SKYLRK LGT RAIN  40  39  97 NW6       30.20R WCI  36          
FORT HOOD      RAIN      39  39 100 NW12      30.17R VSB 5/8 WCI  32  
GATESVILLE     RAIN      45  45 100 W9        30.21S WCI  40          
HAMILTON       CLOUDY    36  36 100 NW16      30.21F WCI  26          
LAMPASAS       CLOUDY    37  36  96 NW12      30.16F WCI  29          
$$
TXZ095>097-106>112-122>126-135>138-148>153-164>167-212300-
EAST TEXAS
  
CITY           SKY/WX    TMP DP  RH WIND       PRES   REMARKS
PARIS          LGT SNOW  36  36 100 N18       30.27F FOG     WCI  25  
SULPHUR SPRNGS LGT RAIN  37  37 100 N18G24    30.27F WCI  27          
MOUNT PLEASANT CLOUDY    48  47  96 NW17G23   30.24R                  
GILMER         RAIN      52  52  99 NW8       30.12F                  
MINEOLA        LGT RAIN  39  37  93 NW14G20   30.25R WCI  31          
TYLER          HVY RAIN  44  43  96 NW17G24   30.20R VSB 3/4 WCI  36  
LONGVIEW       LGT RAIN  57  57 100 NW8       30.14R FOG              
MARSHALL       CLOUDY    55  53  92 E6        30.13R                  
ATHENS         RAIN      36  36 100 NW9G21    30.22R WCI  29          
PALESTINE      CLOUDY    44  44  99 NW14G21   30.20R FOG     WCI  37  
JACKSONVILLE   RAIN      55  55 100 NW6       30.16R                  
HENDERSON      HVY RAIN  56  55  96 N8        30.14R                  
CENTER         LGT RAIN  56  55  95 E8G20     30.09R                  
NACOGDOCHES    CLOUDY    59  57  93 E7        30.08S                  
LUFKIN         LGT RAIN  60  59  96 NE8       30.06S                  
$$
SUPPLEMENTAL OBSERVATIONS (NWS FORT WORTH AREA)
  
CITY           SKY/WX    TMP DP  RH WIND       PRES   REMARKS
CADDO GRASSLND   N/A     34  32  93 N6G14       N/A  WCI  29          
PAT MAYSE LAKE   N/A     34  32  93 NW13        N/A  WCI  25          
CEDAR HILL       N/A     36  32  87 NE10G21     N/A  WCI  28          
GRANBURY         N/A     34  32  93 W10         N/A  WCI  26          
TEMPLE           N/A     37  36  93 N18G30      N/A  WCI  27          
LAKE LIMESTONE   N/A     39  36  87 N14G23      N/A  WCI  31          
ATHENS           N/A     39  36  87 NW10G18     N/A  WCI  32          
$$
SUPPLEMENTAL OBSERVATIONS (NWS NORMAN AREA)
  
CITY           SKY/WX    TMP DP  RH WIND       PRES   REMARKS
GOODLETT         N/A     25  22  88 N13       30.34F WCI  14          
ODELL            N/A     25  23  94 N14       30.36F WCI  13          
CROWELL          N/A     25  22  90 N17       30.36R WCI  11          
KNOX CITY        N/A     26  21  83 N13       30.37R WCI  15          
SEYMOUR          N/A     26  23  90 N14       30.33S WCI  14          
MILLERS CREEK    N/A     28  27  93 N12G22      N/A  WCI  18          
$$
SUPPLEMENTAL OBSERVATIONS (NWS SAN ANGELO AREA)
  
CITY           SKY/WX    TMP DP  RH WIND       PRES   REMARKS
WEINERT          N/A     25  22  88 N13       30.34S WCI  14          
HASKELL          N/A     24  24 100 NW18      30.33S WCI  10          
THROCKMORTON     N/A     27  25  93 NW13      30.32S WCI  16          
STAMFORD         N/A     25  23  91 NW17      30.34S WCI  12          
CLYDE            N/A     24  23  97 CALM      30.29R                  
IVIE RESERVOIR   N/A     32  30  93 NW20        N/A  WCI  20          
COLORADO BEND    N/A     37  36  93 NW13        N/A  WCI  29          
$$
SUPPLEMENTAL OBSERVATIONS (NWS SHREVEPORT AREA)
  
CITY           SKY/WX    TMP DP  RH WIND       PRES   REMARKS
CLARKSVILLE      N/A     37  36  93 NW21G26     N/A  WCI  27          
TEXARKANA        N/A     54  52  94 NE6G17      N/A                   
LINDEN           N/A     55  54  94 N1G13       N/A                   
CADDO LAKE       N/A     55  54  94 E5G14       N/A                   
GILMER           N/A     54  52  94 N9          N/A                   
HENDERSON        N/A     57  55  94 N8          N/A                   
N SABINE NF      N/A     57  55  94 MISG        N/A                   
S SABINE NF      N/A     57  55  94 NE3G12      N/A                   
$$
SUPPLEMENTAL OBSERVATIONS ARE A COLLECTION OF AUTOMATED INSTRUMENTS
THAT ARE MAINTAINED BY A VARIETY OF FEDERAL AND STATE AGENCIES. 
CERTAIN ELEMENTS...SUCH AS HUMIDITY VALUES AND SUSTAINED WIND 
SPEEDS...MAY BE APPROXIMATED.
  

744 
ASUS44 KFWD 212215
RWRFWD
NORTH TEXAS HOURLY WEATHER ROUNDUP
NATIONAL WEATHER SERVICE FORT WORTH TX
400 PM CST WED FEB 21 2018
NOTE: "FAIR" INDICATES FEW OR NO CLOUDS BELOW 12,000 FEET WITH NO
SIGNIFICANT WEATHER AND/OR OBSTRUCTIONS TO VISIBILITY.
TXZ118-119-212300-
DALLAS/FORT WORTH METROPLEX
  
CITY           SKY/WX    TMP DP  RH WIND       PRES   REMARKS
DFW AIRPORT    RAIN      36  34  92 N7        30.21R FOG     WCI  30  
DALLAS LOVE    LGT RAIN  36  34  92 NE6       30.24F WCI  31          
FTW MEACHAM    HVY RAIN  36  34  92 NE17      30.14F FOG     WCI  26  
DAL-EXECUTIVE  LGT RAIN  36  35  96 VRB5      30.25R WCI  32          
FTW-ALLIANCE   HVY RAIN  34  33  96 NE10      30.20F FOG     WCI  26  
FTW-NAS-JRB    HVY RAIN  35  32  88 NE17G24   30.17F FOG     WCI  25  
FTW-SPINKS     RAIN      34  34 100 NE16G23   30.19F WCI  23          
ARLINGTON      RAIN      34  34 100 NE21      30.14F FOG     WCI  22  
GRAND PRAIRIE  LGT RAIN  34  34 100 N8        30.24F WCI  27          
ADDISON        LGT RAIN  34  32  93 NE15G25   30.21F WCI  24          
MESQUITE       RAIN      36  34  93 N16G23    30.25F FOG     WCI  26  
LANCASTER      LGT RAIN  35  34  96 NE8G16    30.25F WCI  28          
$$
TXZ091>094-102>105-117-120-121-131>134-212300-
NORTH CENTRAL TEXAS
  
CITY           SKY/WX    TMP DP  RH WIND       PRES   REMARKS
SHRMAN/DENISON MIX PCPN N/A N/A N/A CALM      30.31F VSB 1/4          
BOWIE          LGT SNOW  32  31  96 N8        30.25R WCI  25          
BRIDGEPORT     LGT SNOW  32  32 100 CALM      30.27S                  
DECATUR        LGT SNOW  32  32  99 CALM      30.21R                  
DENTON         RAIN      33  32  96 NE13      30.22F FOG     WCI  24  
MCKINNEY       LGT RAIN  34  34 100 N18       30.23F FOG     WCI  23  
BONHAM         MIX PCPN  31  30  96 N14G21    30.33R FOG     WCI  21  
GREENVILLE     LGT SNOW  37  37 100 N18G25    30.26R WCI  27          
ROCKWALL       LGT RAIN  34  34 100 N14       30.25F WCI  25          
TERRELL        HVY RAIN  37  34  89 N15G21    30.24F FOG     WCI  28  
WAXAHACHIE     HVY RAIN  36  36 100 N8        30.25R WCI  29          
CLEBURNE       RAIN      34  34 100 VRB6G32   30.24R WCI  29          
GRANBURY       CLOUDY    35  34  94 W8        30.26R WCI  29          
$$
TXZ083>090-098>101-113>116-127>130-139>142-154-155-212300-
WESTERN NORTH TEXAS
  
CITY           SKY/WX    TMP DP  RH WIND       PRES   REMARKS
WICHITA FALLS  CLOUDY    27  24  89 N21       30.30R WCI  13          
WF-KICKAPOO    FLURRIES  28  26  90 N13       30.33R WCI  18          
VERNON         CLOUDY    27  21  76 N21G26    30.33F WCI  14          
ABILENE        FRZ RAIN  24  24 100 NW17      30.30R FOG     WCI  11  
ABILENE-DYESS  FRZ RAIN  25  25 100 N16       30.32R FOG     WCI  12  
GRAHAM           N/A     31  32 100 NW5       30.26S WCI  26          
CISCO          CLOUDY    30  28  93 N14G22    30.25S FOG     WCI  20  
EASTLAND       CLOUDY    29  29  97 NW15      30.26R FOG     WCI  18  
RANGER         CLOUDY    32  32 100 CALM      30.25R                  
STEPHENVILLE   CLOUDY    33  32  96 CALM      30.26R                  
COMANCHE       CLOUDY    33  33 100 NW10      30.25R WCI  25          
BROWNWOOD      CLOUDY    32  32 100 NW15      30.26R WCI  22          
COLEMAN        CLOUDY    31  29  94 NW15      30.28R FOG     WCI  20  
$$
TXZ143>147-156>162-174-175-212300-
CENTRAL TEXAS
  
CITY           SKY/WX    TMP DP  RH WIND       PRES   REMARKS
WACO           LGT RAIN  37  35  92 N12       30.20F WCI  29          
WACO-MCGREGOR  CLOUDY    36  35  96 NW7G17    30.23F WCI  30          
HILLSBORO      LGT SNOW  40  40 100 NE13      30.19S VSB 1   WCI  32  
CORSICANA      CLOUDY    37  37 100 N13G22    30.21F WCI  29          
MEXIA          CLOUDY    37  36  95 N16G24    30.18F WCI  27          
HEARNE         CLOUDY    40  40 100 NW14G26   30.19F WCI  32          
CAMERON        CLOUDY    38  37  94 N15G21    30.18F WCI  29          
TEMPLE         CLOUDY    37  37 100 N25       30.17S WCI  26          
KILLEEN        TSTM      39  39 100 NW7       30.19R VSB 1   WCI  34  
KILLEEN-SKYLRK LGT RAIN  40  39  97 NW6       30.20R WCI  36          
FORT HOOD      RAIN      39  39 100 NW12      30.17R VSB 5/8 WCI  32  
GATESVILLE     RAIN      45  45 100 W9        30.21S WCI  40          
HAMILTON       CLOUDY    36  36 100 NW16      30.21F WCI  26          
LAMPASAS       CLOUDY    37  36  96 NW12      30.16F WCI  29          
$$
TXZ095>097-106>112-122>126-135>138-148>153-164>167-212300-
EAST TEXAS
  
CITY           SKY/WX    TMP DP  RH WIND       PRES   REMARKS
PARIS          LGT SNOW  36  36 100 N18       30.27F FOG     WCI  25  
SULPHUR SPRNGS LGT RAIN  37  37 100 N18G24    30.27F WCI  27          
MOUNT PLEASANT CLOUDY    48  47  96 NW17G23   30.24R                  
GILMER         RAIN      52  52  99 NW8       30.12F                  
MINEOLA        LGT RAIN  39  37  93 NW14G20   30.25R WCI  31          
TYLER          HVY RAIN  44  43  96 NW17G24   30.20R VSB 3/4 WCI  36  
LONGVIEW       LGT RAIN  57  57 100 NW8       30.14R FOG              
MARSHALL       CLOUDY    55  53  92 E6        30.13R                  
ATHENS         RAIN      36  36 100 NW9G21    30.22R WCI  29          
PALESTINE      CLOUDY    44  44  99 NW14G21   30.20R FOG     WCI  37  
JACKSONVILLE   RAIN      55  55 100 NW6       30.16R                  
HENDERSON      HVY RAIN  56  55  96 N8        30.14R                  
CENTER         LGT RAIN  56  55  95 E8G20     30.09R                  
NACOGDOCHES    CLOUDY    59  57  93 E7        30.08S                  
LUFKIN         LGT RAIN  60  59  96 NE8       30.06S                  
$$
SUPPLEMENTAL OBSERVATIONS (NWS FORT WORTH AREA)
  
CITY           SKY/WX    TMP DP  RH WIND       PRES   REMARKS
CADDO GRASSLND   N/A     34  32  93 N6G14       N/A  WCI  29          
PAT MAYSE LAKE   N/A     34  32  93 NW13        N/A  WCI  25          
CEDAR HILL       N/A     36  32  87 NE10G21     N/A  WCI  28          
GRANBURY         N/A     34  32  93 W10         N/A  WCI  26          
TEMPLE           N/A     37  36  93 N18G30      N/A  WCI  27          
LAKE LIMESTONE   N/A     39  36  87 N14G23      N/A  WCI  31          
ATHENS           N/A     39  36  87 NW10G18     N/A  WCI  32          
$$
SUPPLEMENTAL OBSERVATIONS (NWS NORMAN AREA)
  
CITY           SKY/WX    TMP DP  RH WIND       PRES   REMARKS
GOODLETT         N/A     25  22  88 N13       30.34F WCI  14          
ODELL            N/A     25  23  94 N14       30.36F WCI  13          
CROWELL          N/A     25  22  90 N17       30.36R WCI  11          
KNOX CITY        N/A     26  21  83 N13       30.37R WCI  15          
SEYMOUR          N/A     26  23  90 N14       30.33S WCI  14          
MILLERS CREEK    N/A     28  27  93 N12G22      N/A  WCI  18          
$$
SUPPLEMENTAL OBSERVATIONS (NWS SAN ANGELO AREA)
  
CITY           SKY/WX    TMP DP  RH WIND       PRES   REMARKS
WEINERT          N/A     25  22  88 N13       30.34S WCI  14          
HASKELL          N/A     24  24 100 NW18      30.33S WCI  10          
THROCKMORTON     N/A     27  25  93 NW13      30.32S WCI  16          
STAMFORD         N/A     25  23  91 NW17      30.34S WCI  12          
CLYDE            N/A     24  23  97 CALM      30.29R                  
IVIE RESERVOIR   N/A     32  30  93 NW20        N/A  WCI  20          
COLORADO BEND    N/A     37  36  93 NW13        N/A  WCI  29          
$$
SUPPLEMENTAL OBSERVATIONS (NWS SHREVEPORT AREA)
  
CITY           SKY/WX    TMP DP  RH WIND       PRES   REMARKS
CLARKSVILLE      N/A     37  36  93 NW21G26     N/A  WCI  27          
TEXARKANA        N/A     54  52  94 NE6G17      N/A                   
LINDEN           N/A     55  54  94 N1G13       N/A                   
CADDO LAKE       N/A     55  54  94 E5G14       N/A                   
GILMER           N/A     54  52  94 N9          N/A                   
HENDERSON        N/A     57  55  94 N8          N/A                   
N SABINE NF      N/A     57  55  94 MISG        N/A                   
S SABINE NF      N/A     57  55  94 NE3G12      N/A                   
$$
SUPPLEMENTAL OBSERVATIONS ARE A COLLECTION OF AUTOMATED INSTRUMENTS
THAT ARE MAINTAINED BY A VARIETY OF FEDERAL AND STATE AGENCIES. 
CERTAIN ELEMENTS...SUCH AS HUMIDITY VALUES AND SUSTAINED WIND 
SPEEDS...MAY BE APPROXIMATED.